Farmington, NM

5:49 AM MST on January 24, 2018 (GMT -0700)
Four Corners Regional

Weather History for KFMN - June, 2013

Change the Weather History Date:

Sunday, June 9, 2013

  Actual Average Record
Temperature  
Mean Temperature 76 °F -  
Max Temperature 98 °F 83 °F 98 °F (2013)
Min Temperature 55 °F 48 °F 36 °F (1979)
Cooling Degree Days 12    
Growing Degree Days 26 (Base 50)    
Moisture  
Dew Point 22 °F    
Average Humidity 13    
Maximum Humidity 28    
Minimum Humidity 4    
Precipitation  
Precipitation 0.00 in - - ()
Sea Level Pressure  
Sea Level Pressure 29.82 in    
Wind  
Wind Speed 6 mph (West)    
Max Wind Speed 18 mph    
Max Gust Speed 26 mph    
Visibility 10 miles    
Events      
Averages and records for this station are not official NWS values.
T = Trace of Precipitation, MM = Missing Value Source: NWS Daily Summary

Daily Weather History Graph

Daily Weather History Graph

Search for Another Location

Airport or City:

Trip Planner

Search our weather history database for the weather conditions in past years. The results will help you decide how hot, cold, wet, or windy it might be!

Date:

Astronomy

Jun. 09, 2013 Rise Set
Actual Time 5:53 AM MDT 8:31 PM MDT
Civil Twilight 5:23 AM MDT 9:01 PM MDT
Nautical Twilight 4:45 AM MDT 9:39 PM MDT
Astronomical Twilight 4:02 AM MDT 10:21 PM MDT
Moon 6:51 AM MDT (6/9) 9:21 PM MDT (6/9)
Length of Visible Light 15h 38m
Length of Day
14h 37m
New Moon, 1% of the Moon is Illuminated
Jun 9
New Moon
Jun 16
First Quarter
Jun 23
Full
Jun 29
Last Quarter
Jul 8
New

Hourly Weather History & Observations

Time (MDT) Temp. Dew Point Humidity Pressure Visibility Wind Dir Wind Speed Gust Speed Precip Events Conditions
12:53 AM 70.0 °F 19.9 °F 15% 29.77 in 10.0 mi North 5.8 mph - N/A   Clear
1:53 AM 64.0 °F 21.0 °F 19% 29.79 in 10.0 mi North 6.9 mph - N/A   Clear
2:53 AM 61.0 °F 21.9 °F 22% 29.80 in 10.0 mi NNE 3.5 mph - N/A   Clear
3:53 AM 61.0 °F 21.9 °F 22% 29.81 in 10.0 mi Calm Calm - N/A   Clear
4:53 AM 57.0 °F 21.9 °F 26% 29.83 in 10.0 mi Calm Calm - N/A   Clear
5:53 AM 55.0 °F 21.9 °F 28% 29.85 in 10.0 mi Calm Calm - N/A   Clear
6:53 AM 62.1 °F 28.0 °F 28% 29.86 in 10.0 mi SSE 5.8 mph - N/A   Clear
7:53 AM 64.9 °F 30.0 °F 27% 29.87 in 10.0 mi East 4.6 mph - N/A   Clear
8:53 AM 70.0 °F 30.0 °F 23% 29.88 in 10.0 mi ESE 9.2 mph - N/A   Clear
9:53 AM 77.0 °F 28.0 °F 17% 29.87 in 10.0 mi Variable 3.5 mph - N/A   Clear
10:53 AM 82.9 °F 28.9 °F 14% 29.87 in 10.0 mi WSW 3.5 mph - N/A   Clear
11:53 AM 86.0 °F 26.1 °F 11% 29.86 in 10.0 mi Variable 6.9 mph - N/A   Clear
12:53 PM 90.0 °F 27.0 °F 10% 29.84 in 10.0 mi WSW 6.9 mph - N/A   Clear
1:53 PM 93.9 °F 26.1 °F 9% 29.83 in 10.0 mi WSW 10.4 mph - N/A   Clear
2:53 PM 95.0 °F 23.0 °F 8% 29.81 in 10.0 mi WSW 8.1 mph 19.6 mph N/A   Clear
3:53 PM 97.0 °F 21.9 °F 7% 29.78 in 10.0 mi West 15.0 mph 26.5 mph N/A   Clear
4:53 PM 97.0 °F 19.0 °F 6% 29.78 in 10.0 mi West 13.8 mph 23.0 mph N/A   Clear
5:53 PM 96.1 °F 19.0 °F 6% 29.78 in 10.0 mi WSW 18.4 mph 25.3 mph N/A   Clear
6:53 PM 93.9 °F 17.1 °F 6% 29.77 in 10.0 mi WNW 17.3 mph - N/A   Clear
7:53 PM 91.0 °F 17.1 °F 7% 29.78 in 10.0 mi West 11.5 mph - N/A   Clear
8:53 PM 84.0 °F 17.1 °F 8% 29.79 in 10.0 mi WNW 5.8 mph - N/A   Clear
9:53 PM 81.0 °F 17.1 °F 9% 29.79 in 10.0 mi Calm Calm - N/A   Clear
10:53 PM 68.0 °F 17.1 °F 14% 29.82 in 10.0 mi Calm Calm - N/A   Clear
11:53 PM 66.0 °F 18.0 °F 16% 29.83 in 10.0 mi North 4.6 mph - N/A   Clear